STARLINK-34783

Last updated on Sun Dec 07 2025 00:02:05 GMT+0000 (Coordinated Universal Time)

1 66337U 25253U 25340.46753910 .00094563 00000+0 22431-2 0 9991 2 66337 43.0035 21.8982 0001095 256.5329 103.5406 15.40699596 5951
UTC large
Height (km)
Speed (km/s)
/
Latitude / Longitude
Inclination (degrees)
Orbital Period (minutes)
Azimuth
Elevation
Range (km)
Doppler Factor

Next 0 passes for location: London (51.5072 / 0.1276)

Sorry there are no passes over London.